timestamp,surface_pressure_avg,surface_temp_avg,battery_voltage,lat,long
2019-06-03 00:00:00+00:00,348.4812,5.37,12.97,47.84626,-54.09684
2019-06-03 00:10:00+00:00,348.863,5.4,12.89,47.84626,-54.09684
2019-06-03 00:20:00+00:00,349.173,5.4,12.97,47.84626,-54.09684
2019-06-03 00:30:00+00:00,342.1096,5.39,12.97,47.84626,-54.09684
2019-06-03 00:40:00+00:00,337.7663,5.39,12.97,47.84626,-54.09684
2019-06-03 00:50:00+00:00,331.0998,5.4,12.97,47.84626,-54.09684
2019-06-03 01:00:00+00:00,327.2796,5.4,12.89,47.84626,-54.09684
2019-06-03 01:10:00+00:00,314.3247,5.46,12.81,47.84626,-54.09684
2019-06-03 01:20:00+00:00,308.4697,5.5,12.89,47.84626,-54.09684
2019-06-03 01:30:00+00:00,309.6896,5.53,12.89,47.84626,-54.09684
2019-06-03 01:40:00+00:00,298.6263,5.63,12.97,47.84626,-54.09684
2019-06-03 01:50:00+00:00,281.288,5.8,12.97,47.84626,-54.09684
2019-06-03 02:00:00+00:00,279.6031,5.9,12.89,47.84626,-54.09684
2019-06-03 02:10:00+00:00,279.8114,5.9,12.81,47.84626,-54.09684
2019-06-03 02:20:00+00:00,266.1031,6.11,12.89,47.84626,-54.09684
2019-06-03 02:30:00+00:00,250.8214,6.47,12.89,47.84626,-54.09684
2019-06-03 02:40:00+00:00,246.0282,6.84,12.89,47.84626,-54.09684
2019-06-03 02:50:00+00:00,242.5231,7.01,12.89,47.84626,-54.09684
2019-06-03 03:00:00+00:00,231.6814,7.05,12.81,47.84626,-54.09684
2019-06-03 03:10:00+00:00,219.7048,7.0,12.81,47.84626,-54.09684
2019-06-03 03:20:00+00:00,218.9781,7.0,12.89,47.84626,-54.09684
2019-06-03 03:30:00+00:00,213.9515,7.0,12.89,47.84626,-54.09684
2019-06-03 03:40:00+00:00,198.4181,7.0,12.89,47.84626,-54.09684
2019-06-03 03:50:00+00:00,192.0799,7.0,12.89,47.84626,-54.09684
2019-06-03 04:00:00+00:00,191.7231,7.0,12.81,47.84626,-54.09684
2019-06-03 04:10:00+00:00,182.9948,7.0,12.73,47.84626,-54.09684
2019-06-03 04:20:00+00:00,176.1747,7.0,12.81,47.84626,-54.09684
2019-06-03 04:30:00+00:00,177.1531,7.05,12.89,47.84626,-54.09684
2019-06-03 04:40:00+00:00,171.4498,7.09,12.89,47.84626,-54.09684
2019-06-03 04:50:00+00:00,168.5982,7.1,12.89,47.84626,-54.09684
2019-06-03 05:00:00+00:00,174.7548,7.1,12.81,47.84626,-54.09684
2019-06-03 05:10:00+00:00,175.0015,7.13,12.73,47.84626,-54.09684
2019-06-03 05:20:00+00:00,175.0065,7.17,12.81,47.84626,-54.09684
2019-06-03 05:30:00+00:00,182.3615,7.19,12.81,47.84626,-54.09684
2019-06-03 05:40:00+00:00,183.1231,7.19,12.81,47.84626,-54.09684
2019-06-03 05:50:00+00:00,179.5665,7.16,12.89,47.84626,-54.09684
2019-06-03 06:00:00+00:00,185.9715,7.15,12.81,47.84626,-54.09684
2019-06-03 06:10:00+00:00,186.2498,7.2,12.73,47.84626,-54.09684
2019-06-03 06:20:00+00:00,188.4532,7.28,12.81,47.84626,-54.09684
2019-06-03 06:30:00+00:00,193.8431,7.3,12.81,47.84626,-54.09684
2019-06-03 06:40:00+00:00,198.7981,7.4,12.81,47.84626,-54.09684
2019-06-03 06:50:00+00:00,203.9098,7.4,12.81,47.84626,-54.09684
2019-06-03 07:00:00+00:00,202.6548,7.4,12.73,47.84626,-54.09684
2019-06-03 07:10:00+00:00,208.4281,7.49,12.65,47.84626,-54.09684
2019-06-03 07:20:00+00:00,216.3065,7.5,12.73,47.84626,-54.09684
2019-06-03 07:30:00+00:00,217.5764,7.5,12.73,47.84626,-54.09684
2019-06-03 07:40:00+00:00,217.1814,7.52,12.81,47.84626,-54.09684
2019-06-03 07:50:00+00:00,221.2898,7.57,12.81,47.84626,-54.09684
2019-06-03 08:00:00+00:00,228.6614,7.58,12.73,47.84626,-54.09684
2019-06-03 08:10:00+00:00,235.5615,7.59,12.65,47.84626,-54.09684
2019-06-03 08:20:00+00:00,239.7098,7.6,12.73,47.84626,-54.09684
2019-06-03 08:30:00+00:00,247.5264,7.59,12.73,47.84626,-54.09684
2019-06-03 08:40:00+00:00,252.1697,7.4,12.81,47.84626,-54.09684
2019-06-03 08:50:00+00:00,255.4315,7.49,12.81,47.84626,-54.09684
2019-06-03 09:00:00+00:00,260.3615,7.5,12.73,47.84626,-54.09684
2019-06-03 09:10:00+00:00,270.1681,7.14,12.65,47.84626,-54.09684
2019-06-03 09:20:00+00:00,281.238,6.6,12.73,47.84626,-54.09684
2019-06-03 09:30:00+00:00,290.9932,6.6,12.73,47.84626,-54.09684
2019-06-03 09:40:00+00:00,297.333,6.4,12.73,47.84626,-54.09684
2019-06-03 09:50:00+00:00,303.6481,6.3,12.81,47.84626,-54.09684
2019-06-03 10:00:00+00:00,314.1746,6.3,12.73,47.84626,-54.09684
2019-06-03 10:10:00+00:00,318.9446,6.31,12.65,47.84626,-54.09684
2019-06-03 10:20:00+00:00,320.2764,6.3,12.73,47.84626,-54.09684
2019-06-03 10:30:00+00:00,323.2414,6.28,12.73,47.84626,-54.09684
2019-06-03 10:40:00+00:00,331.7047,6.1,12.81,47.84626,-54.09684
2019-06-03 10:50:00+00:00,334.0064,6.15,12.81,47.84626,-54.09684
2019-06-03 11:00:00+00:00,329.303,6.2,12.73,47.84626,-54.09684
2019-06-03 11:10:00+00:00,328.1463,6.19,12.73,47.84626,-54.09684
2019-06-03 11:20:00+00:00,336.5096,6.1,12.81,47.84626,-54.09684
2019-06-03 11:30:00+00:00,341.9579,6.1,12.81,47.84626,-54.09684
2019-06-03 11:40:00+00:00,336.9913,6.16,12.81,47.84626,-54.09684
2019-06-03 11:50:00+00:00,331.408,6.18,12.89,47.84626,-54.09684
2019-06-03 12:00:00+00:00,333.6997,6.2,12.81,47.84626,-54.09684
2019-06-03 12:10:00+00:00,330.618,6.2,12.73,47.84626,-54.09684
2019-06-03 12:20:00+00:00,322.3846,6.2,12.81,47.84626,-54.09684
2019-06-03 12:30:00+00:00,321.2163,6.2,12.81,47.84626,-54.09684
2019-06-03 12:40:00+00:00,323.8197,6.18,12.89,47.84626,-54.09684
2019-06-03 12:50:00+00:00,318.3497,6.24,12.97,47.84626,-54.09684
2019-06-03 13:00:00+00:00,309.483,6.49,12.97,47.84626,-54.09684
2019-06-03 13:10:00+00:00,304.108,6.48,12.97,47.84626,-54.09684
2019-06-03 13:20:00+00:00,298.9464,6.5,13.05,47.84626,-54.09684
2019-06-03 13:30:00+00:00,295.673,6.57,13.13,47.84626,-54.09684
2019-06-03 13:40:00+00:00,289.7814,6.6,13.13,47.84626,-54.09684
2019-06-03 13:50:00+00:00,283.1331,6.6,13.21,47.84626,-54.09684
2019-06-03 14:00:00+00:00,274.9047,6.69,13.13,47.84626,-54.09684
2019-06-03 14:10:00+00:00,268.4965,6.74,12.97,47.84626,-54.09684
2019-06-03 14:20:00+00:00,262.6714,6.8,13.05,47.84626,-54.09684
2019-06-03 14:30:00+00:00,257.0014,6.84,12.97,47.84626,-54.09684
2019-06-03 14:40:00+00:00,246.1331,6.85,13.21,47.84626,-54.09684
2019-06-03 14:50:00+00:00,237.6298,6.91,13.29,47.84626,-54.09684
2019-06-03 15:00:00+00:00,232.5081,7.06,13.21,47.84626,-54.09684
2019-06-03 15:10:00+00:00,225.3331,7.1,13.13,47.84626,-54.09684
2019-06-03 15:20:00+00:00,212.6214,7.0,13.21,47.84626,-54.09684
2019-06-03 15:30:00+00:00,203.6065,6.9,13.29,47.84626,-54.09684
2019-06-03 15:40:00+00:00,202.3048,6.76,13.29,47.84626,-54.09684
2019-06-03 15:50:00+00:00,195.5231,6.89,13.29,47.84626,-54.09684
2019-06-03 16:00:00+00:00,185.2864,7.08,13.29,47.84626,-54.09684
2019-06-03 16:10:00+00:00,186.7581,7.0,13.21,47.84626,-54.09684
2019-06-03 16:20:00+00:00,186.4448,6.85,13.29,47.84626,-54.09684
2019-06-03 16:30:00+00:00,178.0998,6.97,13.37,47.84626,-54.09684
2019-06-03 16:40:00+00:00,172.3515,7.0,13.44,47.84626,-54.09684
2019-06-03 16:50:00+00:00,174.9098,6.99,13.44,47.84626,-54.09684
2019-06-03 17:00:00+00:00,170.7531,6.99,13.37,47.84626,-54.09684
2019-06-03 17:10:00+00:00,162.6631,7.02,13.29,47.84626,-54.09684
2019-06-03 17:20:00+00:00,168.3598,7.0,13.37,47.84626,-54.09684
2019-06-03 17:30:00+00:00,173.1848,7.01,13.37,47.84626,-54.09684
2019-06-03 17:40:00+00:00,174.0398,7.06,13.44,47.84626,-54.09684
2019-06-03 17:50:00+00:00,179.4715,7.1,13.44,47.84626,-54.09684
2019-06-03 18:00:00+00:00,181.9764,7.17,13.37,47.84626,-54.09684
2019-06-03 18:10:00+00:00,189.5782,7.2,13.29,47.84626,-54.09684
2019-06-03 18:20:00+00:00,195.2249,7.26,13.37,47.84626,-54.09684
2019-06-03 18:30:00+00:00,193.1981,7.2,13.37,47.84626,-54.09684
2019-06-03 18:40:00+00:00,198.0648,7.1,13.37,47.84626,-54.09684
2019-06-03 18:50:00+00:00,203.7431,6.7,13.37,47.84626,-54.09684
2019-06-03 19:00:00+00:00,207.7598,6.6,13.37,47.84626,-54.09684
2019-06-03 19:10:00+00:00,211.8398,6.6,13.29,47.84626,-54.09684
2019-06-03 19:20:00+00:00,218.4414,6.5,13.29,47.84626,-54.09684
2019-06-03 19:30:00+00:00,221.7981,6.4,13.37,47.84626,-54.09684
2019-06-03 19:40:00+00:00,227.8648,6.4,13.37,47.84626,-54.09684
2019-06-03 19:50:00+00:00,233.9948,6.3,13.37,47.84626,-54.09684
2019-06-03 20:00:00+00:00,233.6364,6.3,13.29,47.84626,-54.09684
2019-06-03 20:10:00+00:00,233.8481,6.4,13.21,47.84626,-54.09684
2019-06-03 20:20:00+00:00,241.5697,6.3,13.29,47.84626,-54.09684
2019-06-03 20:30:00+00:00,245.8514,6.2,13.29,47.84626,-54.09684
2019-06-03 20:40:00+00:00,253.7731,6.1,13.37,47.84626,-54.09684
2019-06-03 20:50:00+00:00,261.9164,6.1,13.37,47.84626,-54.09684
2019-06-03 21:00:00+00:00,266.9347,6.1,13.29,47.84626,-54.09684
2019-06-03 21:10:00+00:00,270.6797,6.2,13.13,47.84626,-54.09684
2019-06-03 21:20:00+00:00,281.348,6.2,13.21,47.84626,-54.09684
2019-06-03 21:30:00+00:00,288.8914,6.12,13.21,47.84626,-54.09684
2019-06-03 21:40:00+00:00,300.3563,6.15,13.21,47.84626,-54.09684
2019-06-03 21:50:00+00:00,310.0964,6.1,13.21,47.84626,-54.09684
2019-06-03 22:00:00+00:00,318.5264,6.1,13.13,47.84626,-54.09684
2019-06-03 22:10:00+00:00,330.1197,6.1,13.05,47.84626,-54.09684
2019-06-03 22:20:00+00:00,340.5046,6.1,13.05,47.84626,-54.09684
2019-06-03 22:30:00+00:00,345.3197,6.13,13.05,47.84626,-54.09684
2019-06-03 22:40:00+00:00,352.098,6.19,13.05,47.84626,-54.09684
2019-06-03 22:50:00+00:00,356.7829,6.2,13.05,47.84626,-54.09684
2019-06-03 23:00:00+00:00,356.8462,6.2,12.97,47.84626,-54.09684
2019-06-03 23:10:00+00:00,356.6195,6.2,12.89,47.84626,-54.09684
2019-06-03 23:20:00+00:00,358.1497,5.9,12.97,47.84626,-54.09684
2019-06-03 23:30:00+00:00,355.2313,5.84,12.97,47.84626,-54.09684
2019-06-03 23:40:00+00:00,352.8613,5.8,12.97,47.84626,-54.09684
2019-06-03 23:50:00+00:00,356.1713,5.76,12.97,47.84626,-54.09684
